DAH2016 DAOO-LEAL

Flight info

Callsign DAH2016
Flight time 0h 44m
Altitude 26000
Route SID54 HAMRA DCT RAFOL L150 MAGAL
Aircraft A332/H-SDE3GHIJ2J3J5M1RVWXY/LB2D1

Departure

Time 2026-04-22 11:02
Airport Oran Es-Sénia (Ahmed Ben Bella) International Airport (DAOO)

Arrival

Time 2026-04-22 11:46
Airport Alicante-Elche Miguel Hernández Airport (LEAL)
Time Latitude Longitude Altitude Speed Heading
2026-04-22 10:41 35.61952 -0.61114 313 ft 0 kts 146°
2026-04-22 10:53 35.61954 -0.61115 315 ft 2 kts 146°
2026-04-22 10:53 35.61968 -0.61127 313 ft 2 kts 145°
2026-04-22 10:53 35.61981 -0.61138 313 ft 2 kts 143°
2026-04-22 10:53 35.61994 -0.61151 312 ft 2 kts 139°
2026-04-22 10:54 35.62005 -0.61165 313 ft 2 kts 126°
2026-04-22 10:54 35.62012 -0.61183 312 ft 2 kts 78°
2026-04-22 10:54 35.62009 -0.61194 314 ft 0 kts 67°
2026-04-22 10:54 35.62009 -0.61195 314 ft 0 kts 67°
2026-04-22 10:55 35.62009 -0.61194 314 ft 0 kts 67°
2026-04-22 10:57 35.62010 -0.61193 314 ft 1 kts 67°
2026-04-22 10:57 35.62044 -0.61094 314 ft 25 kts 67°
2026-04-22 10:57 35.62138 -0.61001 314 ft 11 kts
2026-04-22 10:57 35.62195 -0.60940 314 ft 12 kts 64°
2026-04-22 10:58 35.62235 -0.60831 315 ft 15 kts 66°
2026-04-22 10:58 35.62277 -0.60706 315 ft 16 kts 68°
2026-04-22 10:58 35.62284 -0.60684 314 ft 17 kts 68°
2026-04-22 10:58 35.62315 -0.60590 316 ft 18 kts 66°
2026-04-22 10:59 35.62366 -0.60446 314 ft 19 kts 66°
2026-04-22 10:59 35.62462 -0.60360 316 ft 17 kts 14°
2026-04-22 10:59 35.62571 -0.60382 315 ft 17 kts 338°
2026-04-22 10:59 35.62682 -0.60438 316 ft 18 kts 337°
2026-04-22 11:00 35.62801 -0.60500 317 ft 19 kts 337°
2026-04-22 11:00 35.62888 -0.60592 314 ft 15 kts 281°
2026-04-22 11:00 35.62864 -0.60706 314 ft 14 kts 248°
2026-04-22 11:00 35.62855 -0.60733 314 ft 0 kts 247°
2026-04-22 11:01 35.62828 -0.60812 316 ft 35 kts 247°
2026-04-22 11:01 35.62641 -0.61357 314 ft 100 kts 247°
2026-04-22 11:01 35.62297 -0.62357 325 ft 150 kts 245°
2026-04-22 11:02 35.61871 -0.63592 821 ft 157 kts 245°
2026-04-22 11:02 35.61430 -0.64804 1600 ft 158 kts 246°
2026-04-22 11:02 35.60956 -0.66122 1918 ft 181 kts 250°
2026-04-22 11:02 35.60888 -0.67753 2168 ft 206 kts 285°
2026-04-22 11:03 35.61495 -0.69464 2436 ft 233 kts 300°
2026-04-22 11:03 35.62716 -0.70908 2801 ft 259 kts 333°
2026-04-22 11:03 35.64516 -0.71256 3441 ft 271 kts 10°
2026-04-22 11:03 35.66294 -0.70461 4288 ft 274 kts 26°
2026-04-22 11:04 35.68012 -0.69392 5184 ft 278 kts 28°
2026-04-22 11:04 35.69766 -0.68311 6063 ft 282 kts 26°
2026-04-22 11:04 35.71520 -0.67274 6964 ft 283 kts 25°
2026-04-22 11:04 35.73319 -0.66239 7871 ft 287 kts 24°
2026-04-22 11:05 35.75155 -0.65204 8787 ft 291 kts 24°
2026-04-22 11:05 35.77009 -0.64168 9774 ft 294 kts 23°
2026-04-22 11:05 35.78899 -0.63117 10496 ft 306 kts 23°
2026-04-22 11:05 35.80915 -0.62001 10858 ft 329 kts 23°
2026-04-22 11:06 35.83073 -0.60807 11190 ft 351 kts 23°
2026-04-22 11:06 35.85357 -0.59543 11596 ft 367 kts 23°
2026-04-22 11:06 35.87717 -0.58234 12264 ft 375 kts 23°
2026-04-22 11:06 35.90113 -0.56905 12987 ft 380 kts 23°
2026-04-22 11:07 35.92537 -0.55559 13731 ft 384 kts 23°
2026-04-22 11:07 35.94986 -0.54200 14398 ft 388 kts 23°
2026-04-22 11:07 35.97433 -0.52840 15057 ft 392 kts 23°
2026-04-22 11:07 35.99959 -0.51436 15715 ft 396 kts 23°
2026-04-22 11:08 36.02484 -0.50031 16373 ft 399 kts 22°
2026-04-22 11:08 36.04995 -0.48634 16997 ft 403 kts 22°
2026-04-22 11:08 36.07601 -0.47182 17636 ft 407 kts 22°
2026-04-22 11:08 36.10152 -0.45760 18268 ft 411 kts 22°
2026-04-22 11:09 36.12813 -0.44276 18819 ft 415 kts 22°
2026-04-22 11:09 36.15407 -0.42827 19360 ft 417 kts 22°
2026-04-22 11:09 36.18111 -0.41317 19925 ft 420 kts 22°
2026-04-22 11:09 36.20747 -0.39843 20443 ft 423 kts 22°
2026-04-22 11:10 36.23476 -0.38316 20992 ft 426 kts 22°
2026-04-22 11:10 36.26152 -0.36817 21514 ft 429 kts 22°
2026-04-22 11:10 36.28889 -0.35283 22044 ft 432 kts 22°
2026-04-22 11:10 36.31632 -0.33745 22543 ft 435 kts 22°
2026-04-22 11:11 36.34409 -0.32186 23041 ft 438 kts 22°
2026-04-22 11:11 36.37196 -0.30621 23540 ft 441 kts 22°
2026-04-22 11:11 36.39999 -0.29045 23958 ft 443 kts 22°
2026-04-22 11:11 36.42813 -0.27462 24393 ft 445 kts 22°
2026-04-22 11:12 36.45635 -0.25873 24838 ft 446 kts 22°
2026-04-22 11:12 36.48478 -0.24270 25261 ft 448 kts 22°
2026-04-22 11:12 36.51320 -0.22668 25688 ft 450 kts 22°
2026-04-22 11:12 36.54180 -0.21054 25959 ft 452 kts 22°
2026-04-22 11:13 36.57068 -0.19423 26015 ft 460 kts 22°
2026-04-22 11:13 36.59994 -0.17770 26018 ft 463 kts 22°
2026-04-22 11:13 36.62931 -0.16107 26018 ft 464 kts 22°
2026-04-22 11:13 36.65865 -0.14445 26017 ft 463 kts 22°
2026-04-22 11:14 36.68804 -0.12778 26017 ft 463 kts 22°
2026-04-22 11:14 36.71726 -0.11121 26018 ft 463 kts 22°
2026-04-22 11:14 36.74668 -0.09450 26018 ft 463 kts 22°
2026-04-22 11:14 36.77602 -0.07783 26017 ft 463 kts 22°
2026-04-22 11:15 36.80532 -0.06117 26018 ft 463 kts 22°
2026-04-22 11:15 36.83463 -0.04448 26135 ft 463 kts 22°
2026-04-22 11:15 36.86456 -0.02994 26028 ft 460 kts 13°
2026-04-22 11:15 36.89602 -0.02353 26017 ft 457 kts
2026-04-22 11:16 36.92595 -0.02129 26015 ft 456 kts 359°
2026-04-22 11:16 36.95723 -0.02072 26015 ft 456 kts 358°
2026-04-22 11:16 36.98897 -0.02098 26015 ft 455 kts 357°
2026-04-22 11:16 37.02070 -0.02147 26018 ft 456 kts 357°
2026-04-22 11:17 37.05244 -0.02187 26014 ft 456 kts 357°
2026-04-22 11:17 37.08427 -0.02208 26014 ft 457 kts 358°
2026-04-22 11:17 37.11613 -0.02210 26010 ft 457 kts 358°
2026-04-22 11:17 37.14780 -0.02200 26010 ft 457 kts 358°
2026-04-22 11:18 37.17973 -0.02182 26010 ft 457 kts 358°
2026-04-22 11:18 37.21146 -0.02160 26007 ft 457 kts 358°
2026-04-22 11:18 37.24336 -0.02138 26018 ft 457 kts 358°
2026-04-22 11:18 37.27514 -0.02116 26008 ft 457 kts 358°
2026-04-22 11:19 37.30706 -0.02095 26007 ft 458 kts 358°
2026-04-22 11:19 37.33885 -0.02074 26006 ft 458 kts 358°
2026-04-22 11:19 37.37074 -0.02054 26011 ft 458 kts 358°
2026-04-22 11:19 37.40260 -0.02035 26010 ft 458 kts 358°
2026-04-22 11:20 37.43447 -0.02015 26010 ft 458 kts 358°
2026-04-22 11:20 37.46623 -0.01995 25892 ft 453 kts 358°
2026-04-22 11:20 37.49747 -0.01973 25652 ft 445 kts 358°
2026-04-22 11:20 37.52830 -0.01952 25408 ft 442 kts 358°
2026-04-22 11:21 37.55844 -0.01933 25108 ft 435 kts 358°
2026-04-22 11:21 37.58880 -0.01913 24565 ft 430 kts 358°
2026-04-22 11:21 37.61828 -0.01895 23973 ft 428 kts 358°
2026-04-22 11:21 37.64838 -0.01877 23341 ft 426 kts 358°
2026-04-22 11:22 37.67757 -0.01860 22713 ft 422 kts 358°
2026-04-22 11:22 37.70688 -0.01842 22135 ft 418 kts 358°
2026-04-22 11:22 37.73584 -0.01824 21547 ft 414 kts 358°
2026-04-22 11:22 37.76457 -0.01806 20983 ft 411 kts 358°
2026-04-22 11:23 37.79303 -0.01788 20408 ft 407 kts 358°
2026-04-22 11:23 37.82137 -0.01771 19840 ft 405 kts 358°
2026-04-22 11:23 37.84946 -0.01753 19285 ft 402 kts 358°
2026-04-22 11:23 37.87738 -0.01736 18727 ft 400 kts 358°
2026-04-22 11:24 37.90506 -0.01799 18053 ft 397 kts 352°
2026-04-22 11:24 37.93196 -0.02489 17260 ft 394 kts 339°
2026-04-22 11:24 37.95623 -0.04023 16550 ft 387 kts 322°
2026-04-22 11:24 37.97601 -0.06287 15893 ft 381 kts 311°
2026-04-22 11:25 37.98757 -0.07945 15492 ft 377 kts 307°
2026-04-22 11:25 38.00816 -0.11453 14775 ft 370 kts 302°
2026-04-22 11:25 38.02293 -0.14130 14540 ft 371 kts 302°
2026-04-22 11:25 38.03298 -0.15934 14369 ft 371 kts 303°
2026-04-22 11:26 38.04787 -0.18570 14077 ft 363 kts 303°
2026-04-22 11:26 38.06254 -0.21145 13573 ft 358 kts 303°
2026-04-22 11:26 38.07712 -0.23688 13081 ft 354 kts 303°
2026-04-22 11:26 38.09153 -0.26197 12597 ft 349 kts 303°
2026-04-22 11:27 38.10558 -0.28641 12128 ft 345 kts 303°
2026-04-22 11:27 38.11969 -0.31092 11667 ft 341 kts 304°
2026-04-22 11:27 38.13370 -0.33529 11195 ft 339 kts 304°
2026-04-22 11:27 38.14749 -0.35926 10944 ft 329 kts 304°
2026-04-22 11:28 38.16067 -0.38215 10860 ft 314 kts 304°
2026-04-22 11:28 38.17172 -0.40531 10688 ft 299 kts 290°
2026-04-22 11:28 38.17745 -0.43017 10438 ft 290 kts 281°
2026-04-22 11:28 38.18156 -0.45516 10063 ft 287 kts 279°
2026-04-22 11:29 38.18537 -0.47961 9525 ft 285 kts 279°
2026-04-22 11:29 38.18945 -0.50438 9125 ft 287 kts 281°
2026-04-22 11:29 38.19396 -0.52894 8783 ft 285 kts 281°
2026-04-22 11:29 38.19856 -0.55332 8430 ft 283 kts 281°
2026-04-22 11:30 38.20318 -0.57764 8080 ft 282 kts 281°
2026-04-22 11:30 38.20779 -0.60182 7719 ft 280 kts 281°
2026-04-22 11:30 38.21233 -0.62562 7489 ft 273 kts 281°
2026-04-22 11:30 38.21679 -0.64886 7259 ft 268 kts 281°
2026-04-22 11:31 38.22121 -0.67185 7048 ft 267 kts 281°
2026-04-22 11:31 38.22562 -0.69481 6793 ft 266 kts 281°
2026-04-22 11:31 38.23001 -0.71771 6487 ft 266 kts 281°
2026-04-22 11:31 38.23436 -0.74061 6109 ft 267 kts 281°
2026-04-22 11:32 38.23873 -0.76330 5728 ft 267 kts 281°
2026-04-22 11:32 38.24323 -0.78624 5329 ft 267 kts 281°
2026-04-22 11:32 38.24770 -0.80924 4943 ft 267 kts 281°
2026-04-22 11:32 38.25205 -0.83206 4540 ft 263 kts 281°
2026-04-22 11:33 38.25629 -0.85454 4152 ft 261 kts 281°
2026-04-22 11:33 38.26038 -0.87706 3762 ft 259 kts 281°
2026-04-22 11:33 38.26419 -0.89895 3398 ft 247 kts 281°
2026-04-22 11:33 38.26896 -0.91906 3269 ft 230 kts 292°
2026-04-22 11:34 38.27746 -0.93598 3294 ft 227 kts 311°
2026-04-22 11:34 38.29026 -0.94756 3271 ft 228 kts 337°
2026-04-22 11:34 38.30589 -0.94994 3248 ft 229 kts 11°
2026-04-22 11:34 38.31965 -0.94024 3282 ft 229 kts 48°
2026-04-22 11:35 38.32914 -0.92217 3736 ft 267 kts 60°
2026-04-22 11:35 38.33911 -0.90018 4036 ft 303 kts 62°
2026-04-22 11:35 38.34931 -0.87537 4392 ft 325 kts 62°
2026-04-22 11:35 38.36042 -0.85032 4728 ft 334 kts 61°
2026-04-22 11:36 38.37339 -0.82454 5023 ft 352 kts 51°
2026-04-22 11:36 38.39138 -0.80499 5003 ft 334 kts 30°
2026-04-22 11:36 38.41277 -0.79568 4767 ft 320 kts
2026-04-22 11:36 38.43431 -0.79785 4543 ft 306 kts 341°
2026-04-22 11:37 38.45242 -0.81036 4305 ft 290 kts 317°
2026-04-22 11:37 38.46571 -0.82848 4086 ft 270 kts 305°
2026-04-22 11:37 38.47694 -0.84662 3978 ft 254 kts 307°
2026-04-22 11:37 38.48553 -0.86576 3965 ft 248 kts 280°
2026-04-22 11:38 38.48520 -0.88730 3975 ft 243 kts 252°
2026-04-22 11:38 38.47755 -0.90614 3972 ft 240 kts 228°
2026-04-22 11:38 38.44891 -0.92397 3973 ft 229 kts 180°
2026-04-22 11:39 38.43331 -0.92143 3998 ft 227 kts 170°
2026-04-22 11:39 38.41800 -0.91727 3985 ft 228 kts 169°
2026-04-22 11:39 38.40274 -0.91306 3978 ft 221 kts 169°
2026-04-22 11:39 38.38784 -0.90909 3973 ft 215 kts 170°
2026-04-22 11:40 38.37315 -0.90530 3989 ft 216 kts 169°
2026-04-22 11:40 38.35835 -0.90156 3979 ft 217 kts 170°
2026-04-22 11:40 38.34375 -0.89677 3977 ft 219 kts 158°
2026-04-22 11:40 38.33230 -0.88399 3982 ft 222 kts 128°
2026-04-22 11:41 38.32551 -0.86697 3971 ft 210 kts 111°
2026-04-22 11:41 38.32230 -0.84904 3988 ft 207 kts 103°
2026-04-22 11:41 38.31998 -0.83094 3962 ft 207 kts 103°
2026-04-22 11:41 38.31759 -0.81291 3875 ft 206 kts 102°
2026-04-22 11:42 38.31514 -0.79490 3621 ft 207 kts 102°
2026-04-22 11:42 38.31260 -0.77679 3299 ft 208 kts 101°
2026-04-22 11:42 38.31007 -0.75868 2991 ft 208 kts 101°
2026-04-22 11:42 38.30754 -0.74050 2699 ft 204 kts 101°
2026-04-22 11:43 38.30518 -0.72344 2454 ft 191 kts 101°
2026-04-22 11:43 38.30295 -0.70733 2205 ft 179 kts 101°
2026-04-22 11:43 38.30085 -0.69222 1973 ft 168 kts 100°
2026-04-22 11:43 38.29889 -0.67813 1777 ft 155 kts 101°
2026-04-22 11:44 38.29706 -0.66502 1573 ft 145 kts 102°
2026-04-22 11:44 38.29537 -0.65281 1397 ft 136 kts 101°
2026-04-22 11:44 38.29384 -0.64098 1207 ft 134 kts 101°
2026-04-22 11:44 38.29213 -0.62928 1056 ft 136 kts 102°
2026-04-22 11:45 38.29035 -0.61749 881 ft 135 kts 101°
2026-04-22 11:45 38.28883 -0.60569 678 ft 136 kts 99°
2026-04-22 11:45 38.28707 -0.59391 481 ft 135 kts 100°
2026-04-22 11:45 38.28554 -0.58218 311 ft 132 kts 99°
2026-04-22 11:46 38.28393 -0.57090 147 ft 128 kts 99°
2026-04-22 11:46 38.28265 -0.56150 110 ft 81 kts 100°
2026-04-22 11:46 38.28233 -0.55588 101 ft 39 kts 73°
2026-04-22 11:46 38.28281 -0.55418 96 ft 16 kts 70°
2026-04-22 11:47 38.28303 -0.55341 96 ft 0 kts 70°
2026-04-22 11:47 38.28305 -0.55333 96 ft 3 kts 70°
2026-04-22 11:47 38.28318 -0.55290 90 ft 7 kts 67°
2026-04-22 11:47 38.28352 -0.55219 91 ft 12 kts 54°
2026-04-22 11:48 38.28419 -0.55133 90 ft 11 kts 44°
2026-04-22 11:48 38.28459 -0.55054 88 ft 9 kts 55°
2026-04-22 11:48 38.28476 -0.55046 89 ft 1 kts
2026-04-22 11:48 38.28486 -0.55049 90 ft 1 kts 347°
2026-04-22 11:49 38.28504 -0.55064 91 ft 3 kts 323°
2026-04-22 11:49 38.28516 -0.55076 93 ft 2 kts 322°